This is the latest recevied weather packets stored in our database for station/object K6CED. If no packets are shown the sender has not sent any weather packets the latest 10 day(s).
| Time | Temp. | Humidity | Pressure | Rain* | Wind** | Luminosity | Snow |
|---|---|---|---|---|---|---|---|
| 1787712533 | 28.89° C | 52% | 1015.5 hPa | 0 mm | - | 0 W/m² | - |
| 1787712233 | 28.89° C | 52% | 1015.4 hPa | 0 mm | - | 0 W/m² | - |
| 1787711928 | 29.44° C | 52% | 1015.4 hPa | 0 mm | - | 0 W/m² | - |
| 1787711628 | 29.44° C | 52% | 1015.2 hPa | 0 mm | - | 1 W/m² | - |
| 1787711323 | 29.44° C | 51% | 1015.1 hPa | 0 mm | - | 2 W/m² | - |
| 1787711019 | 29.44° C | 51% | 1015.2 hPa | 0 mm | - | 4 W/m² | - |
| 1787710716 | 30° C | 51% | 1015.2 hPa | 0 mm | - | 6 W/m² | - |
| 1787710410 | 30° C | 50% | 1015 hPa | 0 mm | - | 10 W/m² | - |
| 1787710107 | 30° C | 50% | 1015 hPa | 0 mm | - | 14 W/m² | - |
| 1787709801 | 30.56° C | 49% | 1015.1 hPa | 0 mm | - | 18 W/m² | - |
| 1787709496 | 30.56° C | 49% | 1015 hPa | 0 mm | - | 22 W/m² | - |
| 1787709193 | 31.11° C | 48% | 1014.8 hPa | 0 mm | - | 27 W/m² | - |
| 1787708889 | 31.11° C | 47% | 1015 hPa | 0 mm | - | 30 W/m² | - |
| 1787708588 | 31.67° C | 46% | 1015 hPa | 0 mm | - | 34 W/m² | - |
| 1787708283 | 32.22° C | 45% | 1015 hPa | 0 mm | - | 42 W/m² | - |
| 1787707979 | 32.78° C | 44% | 1014.9 hPa | 0 mm | - | 47 W/m² | - |
| 1787707674 | 32.78° C | 43% | 1014.9 hPa | 0 mm | - | 55 W/m² | - |
| 1787707370 | 32.78° C | 43% | 1014.6 hPa | 0 mm | - | 63 W/m² | - |
| 1787707065 | 32.78° C | 43% | 1014.8 hPa | 0 mm | - | 73 W/m² | - |
| 1787706765 | 32.78° C | 43% | 1014.8 hPa | 0 mm | - | 82 W/m² | - |
| 1787706461 | 33.33° C | 42% | 1014.7 hPa | 0 mm | - | 94 W/m² | - |
| 1787706156 | 33.33° C | 43% | 1014.8 hPa | 0 mm | - | 104 W/m² | - |
| 1787705851 | 33.33° C | 42% | 1014.7 hPa | 0 mm | - | 110 W/m² | - |
| 1787705546 | 33.89° C | 42% | 1014.7 hPa | 0 mm | - | 126 W/m² | - |
| 1787705242 | 33.89° C | 41% | 1014.6 hPa | 0 mm | - | 142 W/m² | - |
* Rain latest hour (hover to see other rain measurements)
** Current wind speed in m/s (hover to see current wind gust speed)